******************************************************************************* JPL/HORIZONS PANSTARRS (C/2017 K2) 2025-Dec-12 18:02:31 Rec #:90004437 (+COV) Soln.date: 2025-Dec-12_11:12:30 # obs: 3219 (2013-2025) IAU76/J2000 helio. ecliptic osc. elements (au, days, deg., period=Julian yrs): EPOCH= 2459453.5 ! 2021-Aug-27.0000000 (TDB) RMSW= n.a. EC= 1.000616610296381 QR= 1.797358586358627 TP= 2459933.2330854931 OM= 88.24135080911886 W= 236.1908235130619 IN= 87.55453569028981 A= -2914.902000352314 MA= -.003004469556315987ADIST= 9.999999E99 PER= 9.999999E99 N= 6.263E-6 ANGMOM= .032619759 DAN= 8.11281 DDN= 2.3098 L= 271.8870398 B= -56.1129839 MOID= 1.09150004 TP= 2022-Dec-19.7330854931 Comet physical (GM= km^3/s^2; RAD= km): GM= n.a. RAD= n.a. M1= 8.5 M2= n.a. k1= 4.5 k2= n.a. PHCOF= n.a. Comet non-gravitational force model (AMRAT=m^2/kg;A1-A3=au/d^2;DT=days;R0=au): AMRAT= 0. DT= 0. A1= 1.857391476631E-8 A2= -1.439783871174E-9 A3= -1.118039727211E-8 Standard model: ALN= .1112620426 NK= 4.6142 NM= 2.15 NN= 5.093 R0= 2.808 COMET comments 1: soln ref.= JPL#178, data arc: 2013-05-12 to 2025-12-10 2: k1=4.5; ******************************************************************************* ******************************************************************************* Ephemeris / WWW_USER Fri Dec 12 18:02:31 2025 Pasadena, USA / Horizons ******************************************************************************* Target body name: PANSTARRS (C/2017 K2) {source: JPL#178} Center body name: Earth (399) {source: DE441} Center-site name: GEOCENTRIC ******************************************************************************* Start time : A.D. 2022-Jan-10 00:00:00.0000 UT Stop time : A.D. 2022-Jan-13 00:00:00.0000 UT Step-size : 180 minutes ******************************************************************************* Target pole/equ : undefined Target radii : undefined Center geodetic : 0.0, 0.0, -6378.137 {E-lon(deg),Lat(deg),Alt(km)} Center cylindric: 0.0, 0.0, 0.0 {E-lon(deg),Dxy(km),Dz(km)} Center pole/equ : ITRF93 {East-longitude positive} Center radii : 6378.137, 6378.137, 6356.752 km {Equator_a, b, pole_c} Target primary : Sun Vis. interferer : MOON (R_eq= 1737.400) km {source: DE441} Rel. light bend : Sun {source: DE441} Rel. lght bnd GM: 1.3271E+11 km^3/s^2 Small-body perts: Yes {source: SB441-N16} Atmos refraction: NO (AIRLESS) RA format : HMS Time format : CAL Calendar mode : Mixed Julian/Gregorian EOP file : eop.251212.p260310 EOP coverage : DATA-BASED 1962-JAN-20 TO 2025-DEC-12. PREDICTS-> 2026-MAR-09 Units conversion: 1 au= 149597870.700 km, c= 299792.458 km/s, 1 day= 86400.0 s Table cut-offs 1: Elevation (-90.0deg=NO ),Airmass (>38.000=NO), Daylight (NO ) Table cut-offs 2: Solar elongation ( 0.0,180.0=NO ),Local Hour Angle( 0.0=NO ) Table cut-offs 3: RA/DEC angular rate ( 0.0=NO ) ******************************************************************************* Initial IAU76/J2000 heliocentric ecliptic osculating elements (au, days, deg.): EPOCH= 2459453.5 ! 2021-Aug-27.0000000 (TDB) RMSW= n.a. EC= 1.000616610296381 QR= 1.797358586358627 TP= 2459933.2330854931 OM= 88.24135080911886 W= 236.1908235130619 IN= 87.55453569028981 Equivalent ICRF heliocentric cartesian coordinates (au, au/d): X=-2.891491056185286E-01 Y=-4.726697720947358E+00 Z= 2.803497554442568E+00 VX= 4.484239356255326E-04 VY= 4.289917137380199E-03 VZ=-9.436074662441197E-03 Comet physical (GM= km^3/s^2; RAD= km): GM= n.a. RAD= n.a. M1= 8.5 M2= n.a. k1= 4.5 k2= n.a. PHCOF= n.a. Comet non-gravitational force model (AMRAT=m^2/kg;A1-A3=au/d^2;DT=days;R0=au): AMRAT= 0. DT= 0. A1= 1.857391476631E-8 A2= -1.439783871174E-9 A3= -1.118039727211E-8 Standard model: ALN= .1112620426 NK= 4.6142 NM= 2.15 NN= 5.093 R0= 2.808 ******************************************************************************* Date__(UT)__HR:MN delta deldot *************************************************** $$SOE 2022-Jan-10 00:00 5.02433782055382 -21.1641893 2022-Jan-10 03:00 5.02280838452788 -21.2043185 2022-Jan-10 06:00 5.02127605176384 -21.2444348 2022-Jan-10 09:00 5.01974082318778 -21.2845382 2022-Jan-10 12:00 5.01820269972683 -21.3246289 2022-Jan-10 15:00 5.01666168230906 -21.3647066 2022-Jan-10 18:00 5.01511777186360 -21.4047715 2022-Jan-10 21:00 5.01357096932052 -21.4448235 2022-Jan-11 00:00 5.01202127561090 -21.4848626 2022-Jan-11 03:00 5.01046869166678 -21.5248888 2022-Jan-11 06:00 5.00891321842124 -21.5649020 2022-Jan-11 09:00 5.00735485680830 -21.6049023 2022-Jan-11 12:00 5.00579360776298 -21.6448897 2022-Jan-11 15:00 5.00422947222129 -21.6848640 2022-Jan-11 18:00 5.00266245112024 -21.7248254 2022-Jan-11 21:00 5.00109254539779 -21.7647738 2022-Jan-12 00:00 4.99951975599291 -21.8047092 2022-Jan-12 03:00 4.99794408384550 -21.8446315 2022-Jan-12 06:00 4.99636552989642 -21.8845408 2022-Jan-12 09:00 4.99478409508752 -21.9244371 2022-Jan-12 12:00 4.99319978036151 -21.9643203 2022-Jan-12 15:00 4.99161258666205 -22.0041904 2022-Jan-12 18:00 4.99002251493364 -22.0440474 2022-Jan-12 21:00 4.98842956612166 -22.0838913 2022-Jan-13 00:00 4.98683374117229 -22.1237221 $$EOE ******************************************************************************* Column meaning: TIME Times PRIOR to 1962 are UT1, a mean-solar time closely related to the prior but now-deprecated GMT. Times AFTER 1962 are in UTC, the current civil or "wall-clock" time-scale. UTC is kept within 0.9 seconds of UT1 using integer leap-seconds for 1972 and later years. Conversion from the internal Barycentric Dynamical Time (TDB) of solar system dynamics to the non-uniform civil UT time-scale requested for output has not been determined for UTC times after the next July or January 1st. Therefore, the last known leap-second is used as a constant over future intervals. Time tags refer to the UT time-scale conversion from TDB on Earth regardless of observer location within the solar system, although clock rates may differ due to the local gravity field and no analog to "UT" may be defined for that location. Any 'b' symbol in the 1st-column denotes a B.C. date. First-column blank (" ") denotes an A.D. date. CALENDAR SYSTEM Mixed calendar mode was active such that calendar dates after AD 1582-Oct-15 (if any) are in the modern Gregorian system. Dates prior to 1582-Oct-5 (if any) are in the Julian calendar system, which is automatically extended for dates prior to its adoption on 45-Jan-1 BC. The Julian calendar is useful for matching historical dates. The Gregorian calendar more accurately corresponds to the Earth's orbital motion and seasons. A "Gregorian-only" calendar mode is available if such physical events are the primary interest. NOTE: "n.a." in output means quantity "not available" at the print-time. 'delta deldot' = Apparent range ("delta", light-time aberrated) and range-rate ("delta-dot") of the target center relative to the observer. A positive "deldot" means the target center is moving away from the observer, negative indicates movement toward the observer. Units: AU and KM/S Computations by ... Solar System Dynamics Group, Horizons On-Line Ephemeris System 4800 Oak Grove Drive, Jet Propulsion Laboratory Pasadena, CA 91109 USA General site: https://ssd.jpl.nasa.gov/ Mailing list: https://ssd.jpl.nasa.gov/email_list.html System news : https://ssd.jpl.nasa.gov/horizons/news.html User Guide : https://ssd.jpl.nasa.gov/horizons/manual.html Connect : browser https://ssd.jpl.nasa.gov/horizons/app.html#/x API https://ssd-api.jpl.nasa.gov/doc/horizons.html command-line telnet ssd.jpl.nasa.gov 6775 e-mail/batch https://ssd.jpl.nasa.gov/ftp/ssd/horizons_batch.txt scripts https://ssd.jpl.nasa.gov/ftp/ssd/SCRIPTS Author : Jon.D.Giorgini@jpl.nasa.gov ******************************************************************************* !$$SOF COMMAND = '2017 K2' QUANTITIES = '20' START_TIME = '2022-01-10' STEP_SIZE = '3 hours' STOP_TIME = '2022-01-13'